Regional Weather Roundup
Issued by NWS

Home | Current Version | Previous Version | Graphics & Text | Print | Product List | Glossary On
Versions: 1 2 3 4 5 6 7 8 9 10 11 12 13 14 15 16 17 18 19 20 21 22 23 24 25 26 27 28 29 30 31 32 33 34 35 36 37 38 39 40 41 42 43 44 45 46 47 48 49 50
000
ASUS45 KABQ 110110
RWRNM
NEW MEXICO REGIONAL WEATHER ROUNDUP
NATIONAL WEATHER SERVICE ALBUQUERQUE NM
600 PM MST WED FEB 10 2016

NOTE: "FAIR" MEANS FEW OR NO CLOUDS BELOW 12,000 FEET AGL WITH NO
       SIGNIFICANT WEATHER OR OBSTRUCTIONS TO VISION.

      THIS PRODUCT IS RELEASED AS TWO VERSIONS.  ONE VERSION NEAR
      THE TOP OF THE HOUR CONTAINING PRELIMINARY DATA FROM ALBUQUERQUE
      AND OTHER STATIONS.  A FINAL VERSION WITH ADDITIONAL DATA IS
      ISSUED ABOUT 10 MINUTES AFTER THE HOUR.

NMZ501-503-504-510>518-110200-
NORTHWEST PLATEAU/NORTHCENTRAL MOUNTAINS

CITY           SKY/WX    TMP DP  RH WIND       PRES   REMARKS
FARMINGTON     CLOUDY    45  21  38 W7        30.33S
LOS ALAMOS     CLEAR     52  18  25 CALM      30.34F
SANTA FE       CLEAR     54  15  21 SW5       30.29S
TAOS           CLEAR     39  21  48 E7        30.33S WCI  34
ANGEL FIRE     FAIR      42  13  32 SE8       30.36R

$$
NMZ402-403-502-505>509-110200-
WESTCENTRAL MOUNTAINS/SOUTHWEST MOUNTAINS

CITY           SKY/WX    TMP DP  RH WIND       PRES   REMARKS
GALLUP         MOCLDY    54  23  30 W5        30.36R
GRANTS         PTCLDY    45   9  23 NW13G18   30.36R
SILVER CITY      N/A     59  14  17 S6        30.32R

$$
NMZ407-409-411-412-110200-
SOUTHERN DESERTS

CITY           SKY/WX    TMP DP  RH WIND       PRES   REMARKS
LORDSBURG      FAIR      61  16  17 NW7       30.26S
DEMING         CLEAR     63  14  15 S5        30.26S
LAS CRUCES     CLEAR     59  12  15 W7        30.27S
HOLLOMAN AFB   CLEAR     64  16  15 NW1       30.24S
ALAMOGORDO     CLEAR     63  14  15 NW3       30.26S
T OR C         PTCLDY    63  14  15 CALM      30.25S

$$
NMZ519>523-110200-
CENTRAL VALLEYS/CENTRAL HIGHLANDS

CITY           SKY/WX    TMP DP  RH WIND       PRES   REMARKS
ALBUQUERQUE    PTCLDY    58  16  19 E3        30.29S
DOUBLE EAGLE   PTCLDY    55  18  22 CALM      30.31S
MORIARTY ARPT  FAIR      46  15  28 NW7       30.31S
CLINES CORNERS CLEAR     42  22  44 NW7       30.29F
BELEN          FAIR      53  15  21 CALM      30.29S
SOCORRO        FAIR      55  17  22 CALM      30.28S

$$
NMZ524>526-539-540-110200-
SOUTHCENTRAL MOUNTAINS

CITY           SKY/WX    TMP DP  RH WIND       PRES   REMARKS
RUIDOSO          N/A     52   9  17 NW8       30.35S

$$
NMZ527>531-110200-
NORTHEAST HIGHLANDS/NORTHEAST PLAINS

CITY           SKY/WX    TMP DP  RH WIND       PRES   REMARKS
LAS VEGAS      CLEAR     49   9  19 NW12      30.26R
RATON          CLEAR     57  -1   9 NW15      30.19R
CLAYTON        CLEAR     57   3  11 NW8       30.11S

$$
NMZ532>537-110200-
EASTCENTRAL PLAINS

CITY           SKY/WX    TMP DP  RH WIND       PRES   REMARKS
TUCUMCARI      CLEAR     58  12  16 W9        30.09R
CANNON AFB     CLEAR     64   9  11 W10       30.13S
CLOVIS AIRPORT CLEAR     55  10  16 SW9       30.15S

$$
NMZ028-029-538-110200-
SOUTHEAST PLAINS

CITY           SKY/WX    TMP DP  RH WIND       PRES   REMARKS
ROSWELL        CLEAR     65  19  17 CALM      30.17R
ARTESIA        CLEAR     61  19  20 SW12      30.17R
CARLSBAD       CLEAR     63  18  17 W6        30.16S
HOBBS          CLEAR     59  12  15 SW8       30.19S


$$



USA.gov is the U.S. government's official web portal to all federal, state and local government web resources and services.